www.pogodaiklimat.ru

Погода и климат >> Архив погоды >> Россия >> Оренбургская область >> Энергетик


ПОГОДА в Энергетике

  • Прогноз погоды в Энергетике
  • Монитор погоды в Энергетике

АРХИВ ПОГОДЫ в Энергетике

Время (UTC), дата Ветер
(напр.,м/с)
 
Видим.   Явления Облачность Т
(С)
Тd
(С)
f
(%)
Тe
(С)
Тes
(С)
Комфортность P
(гПа)
Po
(гПа)
Тmin
(С)
Tmax
(С)
R
(мм)
R24
(мм)
S
(см)
09 9.07 З 2 40 км 3/3 1000 м
[Cu hum Ci fib]
+29.9 +7.5 25 +29 +40 жарко 1007.7 978.4
12 9.07 СВ 2 35 км 8/5 600 м
[Cu med, cong Ci fib]
+31.0 +6.9 22 +30 +33 жарко 1007.0 977.9
15 9.07 В 2 30 км 3/1 600 м
[Sc diur, vesp Ci fib]
+29.9 +6.5 23 +29 +29 жарко 1007.0 977.7 +32.2
18 9.07 В 3 4000 м 3/0
[Ac lent Ci fib]
+21.9 +10.1 47 +24 +24 комфорт 1008.3 978.2
21 9.07 ЮВ 4 4000 м 4/0
[Ci fib]
+20.9 +7.4 42 +22 +22 комфорт 1008.0 977.8
00 10.07 Ю 3 28 км 9/0
[Ac trans Ci fib]
+17.9 +7.0 49 +18 +18 1007.9 977.4
03 10.07 Ю 6-10
{11}
30 км 9/1 600 м
[Sc Ci fib]
+24.1 +8.0 36 +25 +26 комфорт 1006.7 976.9 +16.8
06 10.07 Ю 6-12
{12}
30 км 9/3 600 м
[Cb cap Ac trans Cc]
+30.5 +4.2 19 +28 +31 жарко 1005.3 976.1
09 10.07 СЗ 3
{13}
30 км 10/4 1000 м
[Sc diur, vesp As op]
+27.3 +6.2 26 +27 +28 жарко 1005.7 976.2
12 10.07 З 3 35 км 9/4 600 м
[Sc diur, vesp Ac cast]
+30.0 +6.5 23 +29 +30 жарко 1004.0 974.8
15 10.07 ЮВ 2 35 км 9/4 600 м
[Cb cap Ac cast Cc]
+29.4 +7.5 25 +28 +29 жарко 1003.1 973.9 +31.6
18 10.07 З 6-11
{11}
4000 м 10/5 600 м
[Cb calv As op]
+27.1 +8.2 30 +27 +27 жарко 1004.4 974.9
21 10.07 ЮЗ 3
{13}
4000 м 10/6 600 м
[Cb cap As op]
+24.3 +9.4 39 +25 +25 комфорт 1004.5 974.8
00 11.07 ЮЗ 2 26 км в посл. час ливневой дождь 10/10 660 м
[Cb cap]
+18.5 +15.5 83 +20 +20 1006.3 976.0
03 11.07 ЮЗ 2 35 км 9/6 600 м
[Cb cap Ac cast]
+21.6 +17.4 77 +26 +27 душно 1007.0 977.0 +18.3 0.7
06 11.07 З 2 40 км 4/1 600 м
[Cu med, cong Ac cast]
+26.1 +15.0 50 +29 +38 жарко 1006.7 977.1
09 11.07 ЮЗ 3 40 км 8/6 600 м
[Cu med, cong Cc]
+30.2 +10.2 29 +30 +35 жарко 1006.0 976.8
12 11.07 СЗ 2 35 км 9/6 600 м
[Cb cap Ci fib]
+31.3 +8.7 25 +30 +33 жарко 1006.0 976.9
15 11.07 СЗ 4 35 км 3/3 600 м
[Cu med, cong]
+28.7 +6.8 25 +28 +28 жарко 1007.5 978.1 +31.8
18 11.07 С 2 4000 м 1/1 600 м
[Sc diur, vesp]
+22.5 +11.0 48 +25 +25 комфорт 1009.4 979.4
21 11.07 С 1 4000 м ясно +19.9 +8.0 46 +22 +22 комфорт 1010.2 979.9
00 12.07 С 1 26 км ясно +17.6 +8.6 56 +19 +19 1010.4 979.8
03 12.07 В 4 35 км 3/0
[Ci fib]
+22.4 +8.8 42 +24 +26 комфорт 1009.7 979.6 +17.5
06 12.07 В 4 40 км 1/0
[Ci fib]
+30.4 +9.3 27 +30 +39 жарко 1008.3 979.1
09 12.07 В 5 40 км 3/0
[Ci fib]
+35.0 +7.8 19 +33 +41 жарко 1006.1 977.4
12 12.07 ЮВ 4
{11}
40 км 4/3 600 м
[Cu med, cong Ci fib]
+37.5 +3.5 12 +34 +38 очень
жарко
1004.2 975.7
15 12.07 В 5 35 км 9/3 600 м
[Sc diur, vesp Ci fib]
+36.1 +2.7 12 +33 +33 жарко 1003.7 975.1 +37.9
18 12.07 В 3 4000 м 4/0
[Ci fib]
+27.2 +6.1 26 +26 +26 жарко 1004.2 974.7
21 12.07 ЮВ 5 4000 м 9/0
[Ci fib]
+25.6 +5.1 27 +25 +25 комфорт 1004.3 974.6
00 13.07 ЮВ 4 26 км 9/0
[Ac cast Ci fib]
+23.5 +3.6 27 +23 +23 комфорт 1004.5 974.7
03 13.07 Ю 5 35 км 9/0
[Ac cast Ci fib]
+28.3 +3.5 20 +27 +28 жарко 1004.4 975.0 +22.9
06 13.07 Ю 5 40 км 8/0
[Ac cast Ci fib]
+36.7 +1.5 11 +33 +38 жарко 1003.7 975.1
09 13.07 Ю 6-11
{12}
40 км 9/3 600 м
[Cu Sc Ac trans Cc]
+39.5 -0.1 8 +36 +38 очень
жарко
1002.6 974.3
12 13.07 ЮЗ 4
{11}
40 км 9/3 600 м
[Cu Sc Ac cuf Cc]
+39.8 +1.4 9 +36 +38 очень
жарко
1002.0 973.8
15 13.07 ЮВ 4 35 км 8/0
[Ac trans Ci fib]
+36.6 +1.3 11 +33 +33 жарко 1001.7 973.2 +40.3
18 13.07 ЮВ 5
{10}
4000 м 8/3 600 м
[Sc Ac trans Ci fib]
+30.0 +2.6 17 +28 +28 жарко 1003.5 974.3
21 13.07 Ю 4
{10}
4000 м 6/3 600 м
[Sc Ac lent Ci fib]
+28.6 +3.5 20 +27 +27 жарко 1004.8 975.4
00 14.07 СВ 1 26 км 9/5 600 м
[Sc Ac trans Ci fib]
+22.1 +8.0 40 +23 +23 комфорт 1005.5 975.6
03 14.07 ЮВ 2 35 км 6/1 600 м
[Sc Ac cast Ci fib]
+26.5 +4.7 25 +26 +28 жарко 1005.5 975.9 +22.1
06 14.07 Ю 2 35 км 9/3 600 м
[Cu hum Ac lent Cc]
+31.6 +4.2 18 +29 +35 жарко 1004.5 975.4
09 14.07 СЗ 1 35 км 9/3 600 м
[Sc diur, vesp Ac As Ci fib]
+35.1 +7.0 18 +33 +41 жарко 1003.4 974.8
12 14.07 ЮЗ 3
{13}
35 км 9/9 600 м
[Cb cap]
+33.3 +5.4 18 +31 +32 жарко 1003.2 974.3
15 14.07 ЮЗ 2 30 км 9/4 600 м
[Cb cap Ac und]
+30.6 +9.0 26 +30 +30 жарко 1003.7 974.6 +36.1
18 14.07 В 1 4000 м 9/8 600 м
[Sc diur, vesp Ac und]
+25.8 +11.4 41 +27 +27 жарко 1002.3 972.8
21 14.07 В 4 4000 м 8/4 600 м
[Sc diur, vesp Ac lent]
+22.8 +11.4 49 +25 +25 комфорт 1000.0 970.2
00 15.07 ЮВ 7-11
{13}
26 км 9/9 600 м
[Sc]
+27.8 +3.0 20 +26 +26 жарко 997.2 967.9
03 15.07 Ю 9-15
{17}
30 км 8/3 600 м
[Cu hum Ac cast Cc]
+29.3 +3.2 19 +27 +28 жарко 995.4 966.4 +22.2
06 15.07 З 7-12
{15}
40 км 1/0
[Ci fib]
+27.4 +11.9 38 +29 +32 жарко 998.1 968.9
09 15.07 ЮЗ 10-14
{14}
40 км 3/3 600 м
[Cu med, cong Ci fib]
+25.0 +12.1 45 +27 +27 жарко 999.3 970.1
12 15.07 штиль 0-13
{14}
50 км ?/? +23.6 +10.4 43 +25 +25 комфорт 1003.0 973.3
15 15.07 З 6-10
{14}
30 км ясно +21.7 +8.7 43 +23 +23 комфорт 1005.1 975.1 +29.4
18 15.07 З 5
{14}
4000 м ясно +17.7 +9.2 57 +17 +17 1007.7 977.2
21 15.07 З 4
{10}
4000 м ясно +15.9 +9.3 65 +15 +15 1008.7 978.0
00 16.07 З 4 26 км ясно +14.9 +9.3 69 +14 +14 1010.2 979.4
03 16.07 З 4 30 км ясно +18.8 +10.1 57 +19 +22 1010.9 980.4 +14.4

 

Местоположение метеостанции Энергетик (Оренбургская область, Россия): широта 51.77 долгота 58.83 высота над уровнем моря 265 м.

В архиве по умолчанию представлена погода в Энергетике за последнюю неделю. Архивные данные за месяц целиком и за предыдущие месяцы, начиная с января 2011 года, Вы можете получить, выбрав интересующий диапазон дат из раскрывающегося списка и нажав кнопку "Ввод!".


*Определитесь, кто Вы:
робот инопланетянин человек

Внимание! Время в таблицах - всемирное. Для получения местного времени необходимо прибавить поправку, которая равна 5 ч.

Смотрите также архив погоды в соседних городах и на ближайших метеорологических станциях:

Погода в Акъяре (Башкирия, Россия) (46 км)
Погода в Айдырля (Оренбургская область, Россия) (75 км)
Погода в Орске (Оренбургская область, Россия) (79 км)
Погода в Кизильском (Челябинская область, Россия) (106 км)
Погода в Кувандыке (Оренбургская область, Россия) (106 км)
Погода в Зилаире (Башкирия, Россия) (110 км)
Погода в Степном (Актюбинская область, Казахстан) (117 км)
Погода в Домбаровском (Оренбургская область, Россия) (124 км)
Погода в Бредах (Челябинская область, Россия) (127 км)
Погода в Кос-Истеке (Актюбинская область, Казахстан) (133 км)

Пояснения к столбцам:

Ветер - указаны скорость ветра в м/с - средняя за 10 мин, порывы в срок и между сроками (в фигурных скобках) и направление, откуда дует ветер: С - северный, СВ - северо-восточный, В - восточный, ЮВ - юго-восточный, Ю - южный, ЮЗ - юго-западный, З - западный, СЗ - северо-западный.
Видимость - горизонтальная дальность видимости в метрах или километрах. При видимости от 1 до 10 км при отсутствии осадков обычно наблюдается дымка, при ухудшении видимости до 1 км и менее - туман. В сухую погоду видимость может ухудшаться дымом, пылью или мглою.
Явления - указаны атмосферные явления, наблюдавшиеся в срок или в последний час перед сроком; фигурными скобками обозначены явления, наблюдавшиеся между сроками (за 1-3 часа до срока); квадратными скобками обозначены град или гололедные отложения с указанием их диаметра в мм.
Облачность - указаны через наклонную черту общая и нижняя облачность в баллах и высота нижней границы облаков в метрах; квадратными скобками обозначены формы облаков: Ci - перистые, Cs - перисто-слоистые, Cc - перисто-кучевые, Ac - высококучевые, As - высокослоистые, Sc - слоисто-кучевые, Ns - слоисто-дождевые, Cu - кучевые, Cb - кучево-дождевые. Подробнее классификацию облаков см. в Атласе облаков (PDF).
T - Температура воздуха - температура, измеренная на высоте 2 м над землей.
Td - Температура точки росы - температура, при понижении до которой содержащийся в воздухе водяной пар достигнет насыщения.
f - Относительная влажность воздуха - влажноcть воздуха, измеренная на высоте 2 м над землей.
Te - Эффективная температура - температура, которую ощущает одетый по сезону человек в тени. Характеристика душности погоды. При расчете учитывается влияние влажности воздуха и скорости ветра на теплоощущения человека.
Tes - Эффективная температура на солнце - температура, которую ощущает человек, с поправкой на солнечный нагрев. Характеристика знойности погоды. Зависит от высоты солнца над горизонтом, облачности и скорости ветра. Ночью, в пасмурную погоду, а также при ветре 12 м/с и более поправка равна нулю.
P - Атмосферное давление - приведенное к уровню моря атмосферное давление.
Po - Атмосферное давление - измеренное на уровне метеостанции атмосферное давление.
Tmin - Минимальная температура - минимум температуры воздуха на высоте 2 м над землей.
Tmax - Максимальная температура - максимум температуры воздуха на высоте 2 м над землей.
R - Количество осадков - Количество выпавших осадков за период времени, мм. При наведении курсора мыши на число - период времени, за который выпало указанное количество осадков.
R24 - Количество осадков - Количество выпавших осадков за 24 часа, мм.
S - Снежный покров - Высота снежного покрова, см. При наведении курсора мыши на число - состояние снежного покрова и степень покрытия местности в баллах.